GFSSW_250_spd_162.txt.gz
Wind_Speed
95 95 90 91 89 87 84 83 79 78 76 76 73 74 78 75 75 73 70 68 65 60 57 53 53 52 51 50 47 45 43 40 38 37 33 32 30 30 28 26 25 24 22 19 18
96 96 98 91 92 91 87 86 82 79 80 78 77 77 77 79 76 76 75 71 68 64 59 56 56 54 54 54 53 49 46 44 42 41 38 35 34 32 30 29 27 25 24 21 20
101 102 99 99 94 95 91 87 86 83 82 81 81 78 79 80 80 80 78 74 71 68 65 60 60 59 57 56 55 54 50 48 46 45 43 40 37 36 35 33 31 30 28 26 26
107 105 103 101 99 98 96 94 91 86 86 84 83 86 78 81 83 82 81 77 76 72 70 66 65 63 60 59 57 55 53 50 49 47 47 46 43 40 40 40 37 36 35 32 31
113 110 107 107 104 102 101 99 96 91 89 87 88 85 85 80 82 85 85 83 79 77 75 71 69 67 64 61 61 58 56 53 50 48 48 49 47 47 45 45 43 43 40 37 36
118 115 111 111 108 104 103 102 98 96 92 92 92 87 85 85 87 87 86 85 83 82 79 76 72 71 68 65 62 59 57 55 51 51 53 54 53 51 51 48 47 48 46 44 42
118 118 118 116 112 109 108 108 105 97 95 94 95 93 86 85 89 88 88 87 86 85 83 81 77 73 73 71 66 64 61 59 57 58 58 59 57 59 54 53 52 52 51 50 48
114 120 121 118 118 115 112 113 111 104 103 101 96 96 88 88 86 87 90 90 89 90 88 85 83 78 77 75 72 69 66 62 64 63 63 61 64 62 60 57 55 56 56 55 56
113 119 124 124 121 119 118 113 118 113 110 103 99 98 94 89 87 89 88 90 91 90 91 90 89 84 82 79 77 72 69 70 72 70 69 66 69 66 63 62 61 60 59 61 60
110 116 125 125 125 122 121 119 121 119 112 108 105 100 95 94 90 88 88 88 89 91 89 88 88 86 85 83 79 78 78 77 76 76 72 70 72 71 67 63 64 65 65 65 64
108 114 120 127 126 125 125 123 121 120 115 111 105 105 103 102 98 94 95 89 89 89 86 85 83 82 83 85 85 85 82 80 80 79 76 74 72 74 70 66 67 69 68 68 66
108 112 118 126 127 128 128 123 121 123 122 115 115 112 110 110 108 106 97 96 93 91 90 86 79 80 84 85 83 84 83 81 80 79 75 73 67 70 72 68 71 74 75 73 72
112 112 116 122 129 131 126 125 128 124 127 125 121 118 117 117 115 111 110 100 100 95 94 92 85 84 82 80 81 81 80 82 84 83 78 72 70 66 69 71 70 70 72 72 76
119 115 118 121 127 129 128 129 128 127 131 131 126 120 119 116 115 115 110 113 106 105 101 96 95 90 87 83 86 85 85 85 84 84 82 81 78 75 74 77 78 80 78 76 76
125 121 119 120 118 124 128 130 130 131 136 132 132 124 122 117 112 115 122 115 110 109 108 102 97 98 95 91 92 92 94 91 89 88 87 86 86 75 80 83 86 88 86 84 82
130 127 123 120 120 118 123 130 132 138 143 138 131 126 123 119 119 119 120 119 116 111 110 111 107 102 99 100 100 97 95 96 99 99 94 93 93 86 85 87 91 92 90 90 90
133 131 127 122 116 121 122 126 137 144 141 139 131 127 121 123 126 123 119 118 120 117 112 112 111 110 108 107 106 105 104 107 109 107 103 104 105 97 97 97 95 92 92 92 92
130 134 132 126 121 121 126 130 137 141 142 135 131 131 131 129 130 127 126 123 120 118 117 116 115 112 111 113 114 113 114 114 115 112 108 107 103 98 101 106 106 104 103 99 95
120 135 135 131 128 127 131 138 139 138 136 136 132 136 134 133 133 132 130 128 126 122 116 119 118 121 118 120 118 116 115 119 119 116 115 110 103 102 100 106 109 107 108 107 105
111 124 137 135 134 136 137 135 134 136 136 138 131 133 134 132 134 137 133 126 126 124 125 120 119 120 125 128 127 124 120 120 122 121 119 113 110 103 104 110 109 109 111 111 108
102 114 127 140 142 142 143 137 133 133 134 135 132 130 128 134 133 136 138 134 133 132 132 132 130 127 126 126 127 131 130 127 129 127 124 121 116 106 108 112 114 114 112 113 113
89 106 118 133 145 145 145 144 133 130 129 130 130 130 129 128 134 134 134 133 134 136 138 137 138 135 130 129 131 132 132 135 131 130 131 131 118 112 110 115 118 121 122 123 121
80 93 111 123 138 147 148 140 136 137 134 132 125 130 126 125 129 130 131 130 134 136 137 141 144 142 138 134 135 135 133 134 135 138 137 133 119 112 116 115 118 121 123 125 125
69 79 95 114 124 140 148 144 143 143 141 137 125 122 125 124 127 126 125 124 128 130 134 140 145 143 141 135 136 135 136 138 140 142 134 139 126 119 122 124 126 127 127 127 127
62 72 84 100 115 127 139 149 153 146 143 138 134 128 125 126 126 121 121 122 125 126 130 133 137 140 140 142 144 139 139 141 143 134 139 132 136 125 126 128 130 132 131 134 134
53 64 74 88 104 119 129 144 149 151 147 144 139 138 131 127 120 121 122 123 124 128 131 134 132 135 137 138 141 144 144 142 140 139 143 138 138 128 129 137 136 137 137 136 136
49 55 63 77 91 104 117 125 134 141 146 147 143 143 137 133 127 128 127 128 131 131 133 135 133 135 136 133 138 145 139 138 141 142 141 145 139 132 134 131 132 136 139 139 139

GFSSW_250_spd_165.txt.gz
Wind_Speed
94 93 95 92 89 86 84 80 84 85 82 78 77 77 76 76 76 74 73 71 68 66 63 60 58 55 52 50 48 46 47 47 43 40 38 37 34 31 29 26 24 24 22 21 20
99 96 94 96 93 93 89 86 89 88 84 82 80 79 79 78 77 76 74 72 70 69 66 65 62 59 55 50 49 47 46 46 46 43 41 38 35 33 31 28 27 26 25 23 22
105 102 97 95 97 95 93 91 92 91 89 87 83 82 81 78 79 77 76 73 73 72 70 68 66 62 58 53 51 50 49 50 48 46 44 41 39 37 34 32 30 29 27 24 24
110 107 103 97 99 100 96 96 94 93 91 90 86 84 84 82 80 78 77 75 75 76 74 71 69 65 61 57 54 53 52 53 53 50 47 46 44 42 39 36 34 33 31 29 28
117 111 110 104 99 104 100 100 101 97 96 94 91 89 86 81 80 82 80 79 78 78 77 74 72 69 65 60 58 56 56 55 55 54 53 51 48 45 45 42 39 37 35 35 35
121 118 113 108 105 103 105 104 103 101 100 96 95 92 91 82 81 83 83 81 80 80 80 79 76 74 70 63 62 58 58 58 57 56 55 54 51 48 48 46 43 42 40 40 42
127 123 118 114 110 106 108 107 106 107 102 100 98 97 93 85 83 83 85 84 83 84 83 84 80 78 73 69 63 62 63 61 60 60 58 57 52 54 51 48 46 45 43 45 46
124 127 123 119 114 112 110 112 113 107 108 104 103 99 94 88 86 87 85 87 86 86 86 86 84 82 79 74 71 66 65 65 64 63 62 60 58 57 54 53 51 50 49 51 50
107 126 128 126 121 118 114 113 116 112 110 107 104 103 101 93 89 89 87 86 89 87 87 87 87 84 81 80 77 71 68 68 70 69 66 64 64 60 58 55 55 54 54 56 57
105 109 127 128 128 124 121 116 116 120 115 110 108 102 103 96 93 91 91 89 88 89 88 87 86 85 84 83 79 77 76 75 75 76 72 69 67 64 63 60 58 60 61 62 62
109 104 109 125 131 128 126 124 117 118 114 110 109 105 109 106 98 98 96 95 94 91 89 89 87 81 84 85 86 82 82 79 79 77 78 75 72 70 69 66 65 65 65 65 65
113 108 104 113 122 131 130 125 122 118 118 116 115 113 113 110 103 103 102 98 95 93 91 89 85 87 86 86 88 87 85 84 83 83 83 81 77 76 73 71 69 70 68 66 64
119 115 110 107 115 126 129 126 128 120 122 123 121 120 117 116 111 106 104 105 100 98 94 91 89 88 87 88 88 86 87 88 88 88 89 88 81 80 78 72 73 72 71 68 68
124 120 115 112 111 114 123 129 128 127 128 129 124 121 118 118 114 109 109 107 104 101 100 96 91 88 87 86 87 86 89 88 88 89 89 86 84 82 78 75 73 69 69 70 73
130 126 121 115 110 107 109 120 126 132 136 130 128 124 123 119 117 114 112 110 107 107 104 97 98 94 90 89 89 88 88 87 88 84 84 81 80 74 72 73 73 73 73 72 74
132 130 126 121 114 108 110 114 126 136 143 137 130 126 124 120 121 119 114 113 111 109 106 103 99 95 94 95 93 93 93 94 93 90 85 82 80 72 73 75 78 80 80 81 83
126 134 131 125 117 115 111 115 128 135 139 138 130 126 123 127 127 126 122 118 112 113 108 108 106 104 105 102 99 100 99 96 99 99 92 90 88 78 81 81 86 88 88 89 90
118 129 134 129 125 121 118 120 126 132 137 134 131 129 130 130 130 129 131 125 117 113 117 114 112 112 112 110 110 111 111 109 108 103 101 102 94 87 86 89 93 95 94 95 96
115 118 132 134 131 128 127 129 123 124 130 131 133 134 134 134 129 129 131 127 121 119 115 116 117 115 115 118 117 119 114 118 119 114 111 104 99 96 91 94 96 100 101 101 102
104 112 120 135 134 133 134 129 126 124 120 128 133 136 133 130 131 128 128 125 122 125 122 122 120 118 119 121 122 122 122 123 123 121 119 110 109 101 103 102 105 104 106 107 108
90 102 111 124 136 139 139 135 130 123 119 122 127 132 131 131 129 132 130 126 125 125 129 126 126 124 124 120 118 123 125 126 126 126 123 119 117 110 104 105 111 113 114 115 114
80 92 103 114 131 140 141 137 129 129 122 118 120 125 130 133 129 129 130 129 129 130 127 132 135 132 128 128 126 124 124 128 128 125 129 126 113 110 112 115 115 116 115 115 119
74 83 95 111 119 132 140 139 131 130 125 125 122 121 126 128 134 132 129 130 133 133 132 133 136 135 133 131 129 131 127 127 128 132 131 128 112 114 119 118 121 125 126 129 127
66 75 85 102 114 120 133 138 137 134 132 129 128 123 118 117 123 130 130 126 128 132 137 140 139 139 134 129 137 137 136 136 137 139 131 133 120 117 121 121 121 125 128 131 130
58 66 78 90 104 116 122 130 137 138 138 136 133 126 120 119 120 120 120 123 123 128 133 138 140 140 136 136 142 140 142 142 144 139 141 132 136 122 126 131 134 134 131 132 135
49 58 67 79 90 105 114 116 128 139 142 140 137 131 131 122 119 117 118 122 122 125 129 132 131 136 138 139 143 143 146 147 141 140 143 139 141 130 132 138 140 141 138 137 141
43 50 59 69 80 90 104 116 119 128 142 144 141 137 135 130 123 124 125 126 126 127 126 130 130 133 136 136 143 150 142 140 143 145 143 147 141 138 135 134 137 143 145 141 145

GFSSW_250_spd_168.txt.gz
Wind_Speed
95 96 94 95 94 93 90 86 84 87 92 88 87 86 83 79 75 73 70 69 70 68 68 64 60 58 56 55 54 51 48 47 43 40 40 36 35 32 31 27 26 26 24 24 23
103 99 98 97 97 96 96 90 85 86 94 90 93 88 85 84 81 75 69 73 72 70 69 68 64 62 58 57 55 53 51 48 42 44 45 39 38 35 33 31 30 27 25 23 22
108 104 102 101 99 99 98 96 91 90 91 91 94 92 91 89 83 77 75 73 74 72 71 70 68 65 62 60 57 55 53 47 47 46 47 43 41 38 36 34 32 29 27 26 24
114 110 105 104 103 100 100 99 99 94 91 94 92 96 94 90 86 80 78 76 76 74 74 73 71 68 66 63 60 58 54 51 50 47 45 44 44 42 39 36 35 33 29 28 27
119 117 110 107 105 104 101 103 99 99 95 94 90 95 95 92 87 84 81 81 80 78 76 76 75 72 70 68 64 60 57 53 51 50 47 45 47 42 42 41 38 37 34 33 31
124 122 118 112 108 106 105 101 105 99 98 96 95 93 97 94 90 88 84 82 81 80 78 76 77 75 72 71 67 64 60 56 53 52 50 50 49 46 48 45 43 42 40 39 36
128 127 123 119 113 111 107 107 105 105 101 101 97 95 96 96 93 91 86 83 82 81 81 78 76 77 75 73 69 66 65 60 56 55 52 52 49 51 54 48 48 47 45 45 43
130 129 130 123 119 113 114 107 108 108 106 104 99 97 95 96 97 94 90 87 83 81 80 79 79 80 75 72 73 72 69 64 61 60 57 57 53 57 53 50 52 50 48 48 45
120 120 130 131 125 122 116 113 112 109 110 106 103 99 97 101 100 97 94 90 85 82 80 79 79 79 77 76 76 75 71 69 67 64 63 60 58 60 56 54 53 50 51 52 51
122 117 117 129 130 126 123 119 116 114 112 110 108 102 97 101 101 99 97 95 91 86 82 82 82 80 79 78 76 79 79 76 74 71 67 63 61 64 60 59 56 54 55 56 55
124 119 113 116 132 130 128 124 122 117 113 108 103 103 104 104 100 102 102 101 98 94 83 81 84 76 83 84 85 84 81 81 79 77 74 68 66 66 65 62 59 61 60 59 59
127 121 115 113 121 134 133 128 124 119 118 112 109 110 107 108 107 101 104 102 101 97 91 84 78 85 85 86 87 86 86 86 85 82 80 78 71 71 67 66 66 63 64 65 65
130 125 119 115 115 124 134 132 131 126 127 120 113 114 114 113 113 105 103 104 102 103 96 88 84 88 87 85 86 86 87 88 88 85 84 85 76 74 71 69 68 68 71 70 71
133 129 122 119 114 113 125 133 133 131 130 126 119 116 114 113 112 112 107 107 103 104 104 95 90 85 87 86 84 85 87 88 86 84 85 87 77 74 73 71 71 73 75 77 78
130 133 127 122 116 112 111 124 133 135 136 131 124 119 119 116 114 114 114 108 106 107 108 99 93 90 87 89 91 88 89 87 86 85 86 84 81 72 76 74 75 77 80 82 81
118 133 132 128 122 116 115 115 122 134 141 136 127 120 118 116 117 117 112 110 110 109 105 105 99 95 90 92 93 91 90 89 90 90 83 84 82 72 75 75 75 76 77 79 80
106 123 134 131 124 121 118 117 115 131 138 137 127 122 120 121 121 122 120 113 111 109 105 106 103 100 96 96 98 98 96 96 97 95 83 85 86 71 77 76 78 79 79 79 79
99 110 127 134 132 128 125 122 124 123 122 130 132 130 129 126 125 121 126 123 113 111 115 111 110 105 100 102 104 107 105 105 105 103 99 97 83 77 77 79 82 85 83 82 84
90 103 114 132 135 133 131 131 127 123 115 121 128 135 135 133 131 125 122 121 121 117 115 115 113 112 109 106 109 109 108 111 111 108 106 99 87 84 82 84 85 85 88 90 94
79 92 104 118 137 137 136 134 130 121 117 115 118 129 133 131 134 129 124 117 116 119 120 119 118 116 116 116 112 113 114 116 114 112 110 101 101 92 94 94 96 97 99 97 100
70 81 98 108 123 140 143 140 134 124 122 118 119 117 117 130 131 132 129 124 121 122 126 126 123 121 121 118 117 117 118 119 120 119 117 109 105 99 99 100 100 101 103 105 106
64 75 87 105 113 128 143 140 134 128 126 124 121 113 110 113 122 131 129 126 127 127 128 130 131 127 123 124 123 124 119 122 121 118 120 120 110 105 107 109 109 110 109 113 115
59 71 82 95 107 115 128 138 137 133 131 125 123 120 110 106 111 120 124 128 131 130 129 133 134 131 129 126 124 125 124 125 124 124 123 124 107 108 114 115 115 116 117 116 117
53 63 73 81 92 111 115 125 138 136 133 128 127 121 113 110 106 107 114 120 129 131 134 134 137 134 130 125 132 131 131 131 133 134 126 126 110 111 115 117 119 121 122 123 124
44 54 63 74 84 101 115 117 125 136 137 135 129 125 120 117 112 107 107 115 123 125 133 133 136 136 132 131 136 133 132 136 137 132 134 125 129 114 118 121 124 125 126 130 131
34 43 53 61 72 84 100 115 118 123 137 138 134 133 128 122 116 117 114 114 114 116 121 127 130 134 137 136 136 137 137 135 133 133 136 129 133 122 124 127 129 131 136 139 135
29 35 44 53 64 74 86 102 117 123 120 125 137 138 133 128 124 123 121 114 114 116 119 123 126 133 136 133 139 145 135 135 136 132 132 136 129 128 123 126 132 137 142 140 140

GFSSW_250_spd_171.txt.gz
Wind_Speed
104 103 100 96 92 94 94 93 99 97 92 90 87 84 84 80 76 75 69 69 68 67 63 66 67 66 63 57 54 52 51 47 44 41 41 39 37 35 32 30 27 26 25 24 23
109 106 105 99 98 95 95 94 97 98 96 94 90 89 89 85 81 79 73 69 69 68 67 67 67 66 66 63 57 54 53 50 45 44 46 42 39 37 35 32 31 30 28 26 25
114 109 107 105 101 99 96 96 94 100 100 98 95 90 93 88 84 84 78 74 73 70 70 67 68 66 65 66 61 56 54 51 47 49 48 42 42 40 40 35 35 35 30 29 27
114 114 108 106 105 103 101 98 95 95 100 97 98 95 94 93 87 84 82 79 78 74 72 71 69 68 66 66 63 60 56 52 51 52 49 42 46 44 42 40 40 36 33 32 30
119 116 114 109 107 107 104 102 98 97 96 100 98 100 97 95 89 88 88 84 83 77 76 73 72 70 68 66 62 63 59 54 56 53 50 48 47 44 45 45 44 39 36 34 34
122 121 118 115 110 107 108 106 103 100 98 97 99 97 102 97 94 90 91 89 88 83 78 77 73 71 70 68 64 64 62 59 59 56 53 50 47 46 48 49 46 43 40 38 37
129 122 121 117 116 109 109 109 108 105 103 101 97 99 99 103 98 94 92 94 92 88 84 82 76 74 72 70 64 65 66 63 61 59 56 53 48 51 53 47 47 45 44 41 39
126 130 123 121 119 116 113 111 111 109 108 106 104 96 96 95 97 100 97 95 93 90 88 85 82 79 73 70 68 70 67 64 63 64 59 59 53 55 56 49 50 49 48 44 44
123 128 130 124 122 123 118 114 111 113 111 110 106 105 99 96 93 99 104 100 96 94 92 88 86 81 75 72 70 70 67 67 69 69 66 62 57 60 56 53 52 52 52 49 48
127 123 129 130 126 125 125 121 117 113 117 113 113 106 99 97 97 95 100 103 102 99 96 92 88 84 79 73 69 73 76 73 69 72 69 65 62 64 61 56 55 54 54 53 52
131 127 124 128 130 130 127 128 122 118 116 115 110 107 104 105 101 96 97 100 103 101 99 95 92 85 84 81 75 75 71 71 73 75 73 69 66 68 66 60 59 58 58 57 57
134 133 130 125 129 133 130 129 127 123 120 115 112 114 111 108 106 104 98 98 97 101 103 98 91 92 89 85 79 73 74 76 75 74 74 74 71 72 70 64 63 65 63 64 62
132 135 135 131 127 129 134 133 130 127 126 119 120 115 114 112 108 106 100 101 100 100 101 100 97 98 92 88 85 76 71 80 83 76 75 75 72 74 73 70 68 67 67 67 68
116 133 137 135 130 128 128 130 133 130 130 128 121 119 117 113 112 111 109 105 102 101 101 101 100 100 96 91 92 85 77 80 84 83 75 77 73 75 76 74 73 73 74 73 71
97 117 131 137 131 128 126 128 134 136 138 133 129 120 121 117 113 115 113 112 106 105 104 102 103 100 99 95 94 95 88 81 84 84 83 79 77 77 77 76 78 79 78 78 77
88 100 117 131 133 130 131 131 131 136 143 139 130 128 122 119 114 114 113 111 111 108 104 102 104 103 98 99 97 93 93 91 86 87 79 80 78 67 78 80 77 79 79 81 79
82 91 103 118 129 133 134 132 130 132 136 141 134 130 128 120 119 118 115 114 113 111 107 104 106 104 101 102 101 99 99 96 96 88 77 84 86 65 77 78 77 78 80 80 80
77 87 94 104 122 133 133 134 131 132 130 132 137 137 132 130 125 122 120 114 113 112 111 107 106 105 102 101 101 103 106 105 101 95 90 87 78 74 74 78 80 80 80 80 82
71 78 88 96 111 127 136 136 136 132 132 125 127 136 140 136 129 128 124 118 115 112 113 112 112 111 110 107 105 104 104 105 107 104 99 95 84 78 78 81 85 85 87 86 87
63 73 83 92 101 119 133 138 135 133 131 128 121 126 135 132 134 129 127 120 117 114 114 115 116 114 115 113 109 107 107 107 109 109 105 96 93 84 86 90 90 90 89 91 93
55 65 76 89 97 108 127 136 135 134 136 126 120 118 121 130 133 134 130 127 124 121 122 121 119 118 118 115 114 114 111 112 114 111 109 104 94 89 89 93 95 97 99 100 100
50 59 71 81 97 100 112 128 132 135 136 131 123 117 115 117 127 134 131 127 128 128 126 125 123 124 121 121 118 117 115 118 116 113 113 112 101 96 95 99 102 102 106 106 106
48 55 64 76 88 102 105 117 130 137 137 132 127 122 118 114 117 122 130 127 131 131 128 128 128 125 124 122 121 121 119 117 117 123 121 120 102 103 104 104 106 110 112 111 111
41 46 55 68 81 95 105 110 122 133 137 133 130 126 123 119 115 111 110 120 128 133 134 134 134 129 122 121 127 126 129 128 127 127 119 118 106 106 111 113 115 115 115 116 118
31 39 50 59 70 83 93 104 110 120 132 137 134 134 128 125 123 115 108 109 118 127 132 139 136 135 129 129 128 127 128 131 131 124 130 118 118 109 114 118 121 124 123 125 126
20 29 37 46 58 69 79 93 105 111 118 128 134 135 132 128 125 121 118 112 110 112 116 126 132 138 133 132 134 136 136 132 129 127 130 122 124 113 118 122 122 125 130 134 131
17 24 30 37 46 56 67 77 88 100 106 112 121 132 136 132 129 127 125 120 116 112 110 112 115 125 128 132 138 143 135 135 136 132 131 131 123 120 119 121 124 129 133 131 134

GFSSW_250_spd_174.txt.gz
Wind_Speed
107 105 103 103 99 99 91 90 93 94 96 96 94 92 92 91 85 80 75 69 70 69 65 63 64 60 60 59 58 57 56 51 47 45 42 39 38 34 32 31 29 30 28 27 27
112 108 106 106 106 100 99 93 94 95 96 97 96 95 92 91 89 84 81 78 79 77 75 68 62 64 62 61 60 60 59 55 51 48 45 43 43 38 34 36 35 34 31 29 28
114 112 110 110 109 107 102 98 97 96 99 98 99 97 94 91 90 88 85 84 80 77 73 69 69 65 64 61 59 60 59 55 53 52 47 45 43 43 41 41 39 36 33 32 32
116 114 114 112 113 111 108 103 99 99 97 103 105 100 97 94 90 87 88 90 84 79 77 77 67 67 64 63 59 60 58 57 56 54 52 48 43 45 46 44 43 40 37 36 35
118 116 114 117 113 114 112 108 104 101 104 98 105 105 102 98 92 91 89 92 91 87 83 79 73 67 64 64 61 61 59 59 58 58 55 53 46 45 50 49 48 44 42 40 39
123 118 118 119 117 115 113 111 109 106 103 103 101 106 102 100 98 95 92 92 91 90 87 84 79 70 68 68 65 61 59 60 58 58 58 55 51 47 52 51 50 50 46 45 43
115 122 119 119 120 118 117 115 112 108 107 104 101 99 105 104 98 96 94 94 92 90 86 85 85 78 73 71 64 65 61 59 58 57 58 57 54 54 52 52 51 50 49 49 47
115 115 121 122 121 121 119 117 115 113 110 109 105 98 98 105 105 99 97 96 96 94 89 86 86 83 80 77 73 66 61 59 59 59 60 60 57 60 55 54 52 53 50 51 51
120 117 116 125 125 120 121 120 117 117 114 110 108 104 100 96 102 105 101 99 97 97 94 91 91 85 81 78 78 72 66 58 63 63 63 60 60 63 60 56 54 54 55 53 52
122 121 117 121 126 124 122 120 120 120 119 114 112 108 101 96 95 105 106 104 100 98 99 96 92 88 86 83 77 75 76 73 63 67 64 62 59 65 63 60 58 55 56 58 56
122 124 122 116 126 126 125 122 123 125 123 116 109 110 106 103 98 98 105 105 107 103 98 96 93 90 92 91 90 86 79 76 72 66 64 61 64 67 69 63 61 60 61 59 61
124 124 126 122 121 126 126 126 125 124 120 118 114 114 110 110 104 102 98 97 101 105 105 100 91 95 98 94 93 89 86 81 80 77 67 64 62 68 71 68 66 65 64 64 63
122 125 125 126 125 121 126 128 126 123 122 123 116 117 114 113 112 107 105 101 97 103 103 104 104 104 100 97 93 90 87 88 88 83 78 68 61 65 72 69 70 69 69 70 69
117 125 126 125 127 124 125 127 127 125 127 126 121 118 118 116 116 114 112 108 102 101 102 102 103 107 105 99 96 92 93 93 91 89 83 78 65 65 72 74 71 73 75 76 75
105 119 126 127 126 129 125 127 126 128 135 129 124 119 121 121 117 116 117 113 109 106 102 98 103 100 103 104 103 100 98 97 97 93 90 83 80 62 73 73 78 77 75 78 80
95 106 120 127 129 129 134 126 128 129 137 131 124 124 124 122 121 118 115 116 115 112 108 102 99 99 98 102 108 106 104 103 101 100 92 86 88 74 69 78 79 82 80 80 81
83 96 106 120 133 132 130 128 130 133 131 131 129 128 128 125 122 116 116 115 115 114 110 109 106 102 101 102 103 100 101 105 104 101 93 91 90 82 76 75 79 81 85 84 85
73 85 95 107 120 132 132 132 134 129 132 131 131 131 133 131 129 122 121 121 116 114 112 111 110 105 104 107 107 106 107 106 105 101 98 98 89 79 87 80 82 84 85 85 88
63 75 86 95 106 117 132 136 134 128 136 137 131 134 136 136 134 131 126 121 120 116 117 115 115 113 112 110 109 110 107 105 106 103 103 98 91 84 83 90 91 85 90 92 91
55 64 75 87 92 102 116 131 136 135 135 138 132 133 132 131 134 134 130 122 119 119 119 118 117 116 119 117 115 110 110 108 107 103 103 97 95 90 87 88 91 92 88 90 93
47 53 64 76 85 91 104 114 127 133 139 138 135 131 130 131 134 136 134 129 126 123 125 126 123 120 119 116 116 114 114 113 114 109 103 100 96 95 94 96 96 96 96 97 95
42 48 56 67 79 87 93 101 114 126 137 141 137 134 132 133 130 132 132 130 129 129 129 128 129 127 121 120 119 119 117 117 115 110 109 105 92 94 94 99 102 103 105 105 104
39 44 50 59 71 85 91 95 104 115 124 132 134 137 133 132 131 127 124 130 134 135 135 133 131 128 128 124 119 118 119 118 119 120 115 113 93 101 102 102 104 108 108 110 109
29 37 45 54 65 79 90 95 98 101 111 122 127 134 137 134 133 131 128 127 126 134 139 139 136 132 125 122 130 126 123 122 124 124 115 115 104 103 108 110 109 110 112 113 114
19 28 38 47 56 68 78 89 93 97 102 113 121 125 130 133 134 132 131 129 124 123 127 140 141 135 131 133 131 129 130 130 128 118 124 111 113 109 111 113 117 119 117 119 118
11 17 25 37 47 56 69 79 92 96 95 101 104 115 122 126 131 133 131 129 127 125 122 120 122 136 140 137 135 133 133 131 129 126 126 117 117 114 117 120 120 122 125 125 122
6 11 18 25 33 43 54 65 76 88 94 97 99 106 112 119 125 128 128 128 129 123 121 119 116 116 123 136 138 144 133 131 133 134 131 130 119 121 120 123 125 129 130 129 132

GFSSW_250_spd_180.txt.gz
Wind_Speed
110 108 113 113 110 105 111 102 103 102 97 94 92 97 102 98 91 90 94 82 71 86 84 76 68 67 67 66 61 59 55 56 54 53 50 48 42 42 41 33 27 28 27 27 26
114 110 112 113 111 111 110 106 105 105 101 98 95 94 104 102 103 95 92 86 87 68 75 79 79 68 68 67 62 62 56 55 56 54 54 51 46 43 40 34 31 30 32 30 28
117 113 111 115 112 112 111 111 109 107 105 103 99 95 96 105 106 103 91 88 85 83 81 76 75 75 73 69 63 58 59 56 53 55 55 53 48 45 43 39 34 34 36 35 32
118 118 113 116 114 113 110 115 111 110 107 104 102 97 96 98 105 108 101 102 97 93 92 83 78 76 76 70 62 60 58 54 53 52 56 55 53 50 46 45 41 40 39 39 36
116 119 116 116 118 115 113 113 113 111 110 104 100 99 97 92 96 105 106 106 101 96 92 93 82 80 75 74 68 63 59 58 57 56 54 50 49 48 48 47 45 43 43 43 43
113 120 119 119 119 117 115 113 112 111 110 107 105 102 101 93 92 96 100 99 100 102 93 94 93 80 82 75 73 68 63 60 57 57 55 54 49 49 50 45 46 45 43 44 47
112 120 123 120 122 120 117 117 114 110 108 110 107 106 101 101 96 93 94 94 99 99 100 95 91 88 85 74 78 75 68 63 62 58 57 57 50 50 52 48 46 48 46 47 47
110 117 122 120 123 122 119 119 117 113 109 110 108 107 106 103 100 93 94 94 94 98 98 98 95 93 86 86 79 84 79 66 66 61 60 58 56 56 54 53 51 51 50 49 51
105 114 122 123 121 124 122 120 120 116 114 110 111 106 110 106 103 99 96 95 93 93 100 102 97 97 94 86 78 76 75 72 77 76 69 64 63 60 55 52 49 48 50 52 54
99 113 119 122 122 123 125 122 120 118 119 113 114 112 104 106 107 102 97 96 94 93 93 96 101 101 94 94 86 83 76 82 82 81 80 78 69 68 63 58 52 46 48 56 57
97 110 118 124 125 121 126 123 122 123 118 115 113 113 110 110 109 107 105 99 98 94 95 94 92 95 101 99 96 95 91 81 82 86 83 77 71 71 68 59 58 57 57 53 55
94 105 116 121 124 123 124 125 124 122 117 120 117 115 114 111 111 112 109 106 103 104 97 95 89 92 98 104 104 100 98 89 89 88 85 83 73 72 67 67 65 61 59 60 57
89 100 113 119 124 125 123 120 127 123 120 123 119 122 118 115 112 113 113 107 107 105 111 106 93 95 95 96 101 102 101 99 96 93 95 88 82 82 76 70 74 78 67 62 67
84 96 108 118 122 126 126 121 125 125 129 127 124 125 122 119 115 113 115 110 109 109 107 106 102 102 98 98 96 94 97 102 106 103 96 96 88 85 82 75 76 72 71 74 71
79 91 102 115 121 124 124 124 120 132 130 125 130 123 120 120 117 113 114 113 109 112 109 105 105 107 106 104 104 100 98 101 100 101 104 98 94 84 83 79 82 82 81 80 76
74 85 97 111 120 124 125 124 125 126 132 130 130 126 118 118 120 119 116 114 113 111 109 107 107 103 102 102 107 106 101 103 104 101 97 94 98 88 85 85 89 90 88 87 86
67 77 89 103 116 123 124 125 127 127 130 133 129 124 120 118 120 121 120 115 111 113 111 107 106 107 106 106 107 106 108 111 109 107 96 99 99 81 86 88 89 91 92 90 89
62 69 81 95 109 120 123 124 126 129 130 127 129 128 127 125 123 123 123 119 114 110 111 110 109 107 107 107 109 108 106 108 113 112 103 101 94 84 84 90 93 95 95 94 95
55 61 73 84 99 113 121 123 125 128 135 130 124 130 130 127 124 124 123 121 121 117 113 110 111 110 108 109 111 113 112 112 109 108 105 99 89 89 91 90 95 97 98 99 97
48 56 65 76 89 104 116 122 124 127 131 129 128 120 130 127 126 127 126 120 121 123 122 120 117 115 115 114 113 110 111 111 111 107 105 97 91 87 96 96 96 99 101 99 99
42 49 58 67 80 92 108 120 123 124 130 128 124 122 117 125 124 124 125 126 121 124 126 127 125 122 122 118 116 116 113 112 112 112 109 101 93 88 89 93 97 101 102 103 103
36 43 52 63 72 83 94 109 119 120 124 126 126 124 123 118 124 125 128 128 128 128 130 128 127 126 124 123 122 122 119 120 119 112 111 107 94 90 89 89 90 94 99 102 104
33 43 49 57 65 75 84 94 106 117 123 124 124 126 124 120 123 127 126 125 128 130 131 131 133 131 130 128 126 124 121 122 122 120 116 113 96 97 99 99 100 102 103 103 103
20 30 38 47 56 67 74 83 93 105 116 122 123 123 122 124 128 122 126 128 129 129 134 136 135 131 125 125 127 128 127 127 128 127 116 116 102 101 102 105 108 108 110 111 112
16 22 28 37 47 57 65 70 80 92 100 111 120 121 119 122 127 127 130 125 124 126 132 134 132 135 127 126 126 124 127 129 131 124 126 114 115 108 111 112 113 115 117 119 118
9 15 20 29 38 46 53 60 65 74 85 96 104 107 113 119 123 126 128 131 131 128 129 127 129 131 130 130 132 131 130 127 123 122 128 118 119 115 118 120 118 120 123 122 121
10 2 10 21 29 36 43 50 57 63 69 76 85 90 96 107 117 122 122 125 129 129 130 131 131 129 122 125 130 133 126 126 130 127 123 123 115 124 119 120 122 126 127 124 123

GFSSW_250_spd_183.txt.gz
Wind_Speed
98 100 101 98 109 111 113 113 108 104 103 96 99 105 102 96 92 92 92 75 78 76 73 77 76 72 73 68 65 65 58 62 53 51 53 48 44 44 34 38 35 34 32 25 25
98 102 108 104 105 115 119 113 114 110 106 106 99 101 106 97 94 94 93 87 77 77 75 79 80 78 78 70 74 69 63 60 54 54 51 54 49 47 41 40 37 35 35 26 27
98 104 110 113 109 117 120 120 116 115 112 107 104 101 101 96 97 99 98 93 86 79 80 80 80 85 79 80 78 70 66 65 58 57 55 53 53 50 45 43 44 39 35 28 28
95 100 110 117 117 114 122 124 121 121 116 112 108 104 102 99 95 102 103 97 96 87 85 82 89 84 83 77 81 73 63 61 58 57 57 54 48 47 48 44 45 40 37 31 32
91 99 106 117 124 117 121 123 124 126 118 114 113 110 107 105 100 101 106 107 101 92 91 93 78 80 95 89 83 78 68 60 59 55 56 51 48 47 46 47 46 45 39 39 36
84 96 107 116 125 124 119 123 125 124 122 116 113 115 115 109 105 101 103 106 109 101 96 92 82 79 73 83 90 90 83 68 61 58 57 52 48 49 46 44 39 40 40 36 37
82 93 107 115 123 128 121 125 124 123 123 120 118 117 114 112 107 102 102 108 111 105 104 103 94 89 87 80 76 85 89 81 70 66 58 55 51 52 50 48 44 42 42 38 38
77 89 104 114 122 127 126 125 125 118 120 123 123 119 114 110 107 105 102 100 106 109 105 100 99 93 92 94 87 83 86 83 76 72 69 62 56 57 54 51 49 47 43 44 40
74 85 100 112 120 128 129 124 126 122 123 121 124 120 116 113 107 106 102 99 95 102 106 102 105 96 95 92 94 95 86 81 80 79 75 70 66 65 59 56 53 50 46 44 47
71 83 97 110 119 129 130 125 127 127 124 126 122 122 116 112 110 107 104 101 98 97 99 102 104 103 101 96 93 86 95 92 87 85 84 81 76 70 67 64 59 52 51 49 50
68 82 94 108 117 128 131 129 129 128 126 121 120 117 117 115 114 111 110 107 102 101 99 98 93 92 96 98 93 91 88 92 94 85 80 75 79 73 69 64 62 57 54 55 55
66 79 91 104 116 126 133 132 129 129 124 125 123 120 120 119 116 115 113 112 108 105 103 101 92 89 91 94 97 96 92 86 90 87 82 82 77 78 76 69 68 69 66 65 62
63 75 87 101 115 124 133 132 129 129 128 125 123 121 121 118 116 116 116 114 113 110 107 104 98 96 94 92 94 99 99 95 90 90 87 84 81 80 79 76 75 75 70 68 72
61 72 83 97 111 122 131 132 130 132 131 126 126 128 125 120 116 115 115 113 112 110 109 107 103 98 95 94 94 90 93 99 102 97 93 87 80 76 76 79 82 82 82 80 77
57 68 79 94 107 119 127 133 133 131 132 132 136 128 124 120 117 113 112 115 112 111 112 108 105 105 102 98 96 92 94 95 96 102 101 97 92 83 82 77 83 86 87 85 82
54 65 76 90 104 118 125 131 132 134 138 138 134 128 127 126 124 117 114 111 113 112 110 109 107 105 105 104 104 101 98 96 95 97 100 96 100 90 88 87 89 92 91 91 89
51 61 72 85 99 113 121 127 134 133 137 138 134 128 127 128 127 122 117 115 112 110 109 107 109 108 108 107 105 104 102 102 103 101 97 95 98 84 91 94 95 96 96 93 95
46 57 67 80 92 106 119 124 130 133 134 137 134 133 132 131 127 124 120 117 115 112 110 109 109 108 108 110 109 109 107 110 110 105 99 99 94 84 86 91 95 100 99 99 99
44 53 60 73 86 98 113 122 128 131 134 131 129 131 132 133 129 124 122 120 118 116 114 110 110 110 111 113 113 112 109 110 110 106 103 97 88 85 87 89 93 95 97 98 98
39 47 56 66 80 93 104 118 122 127 129 131 128 129 132 134 131 127 124 122 121 118 118 115 113 112 111 113 114 114 112 111 110 109 106 99 93 87 90 92 93 96 99 99 99
31 41 51 59 72 85 95 108 119 123 127 130 129 130 129 130 132 129 127 123 121 119 118 118 118 117 115 112 112 115 114 115 115 113 109 103 96 93 93 92 92 92 94 96 96
25 34 45 55 64 76 88 97 110 121 123 127 129 126 127 126 127 127 129 123 120 119 120 120 119 118 118 117 118 116 113 117 115 112 113 108 96 95 94 93 94 96 98 101 99
22 28 37 48 56 65 78 89 98 112 120 125 125 128 128 128 128 123 121 124 124 121 121 122 120 118 119 120 120 120 119 119 117 116 112 112 96 95 97 97 98 101 101 100 100
16 22 28 36 47 55 66 78 89 98 113 120 123 126 127 127 126 124 121 117 121 122 125 124 124 121 123 124 123 123 123 122 124 122 111 111 100 100 102 104 105 106 106 107 108
10 17 22 27 36 48 56 64 76 87 97 111 118 119 123 124 126 123 122 121 119 120 127 129 126 127 129 127 125 123 123 123 122 120 124 115 114 105 110 112 113 112 112 114 115
7 6 15 21 26 33 44 53 60 74 83 93 104 111 113 119 121 120 121 120 123 120 121 122 124 132 128 128 129 126 121 121 122 119 121 115 117 112 113 117 116 117 122 122 120
15 9 6 9 16 22 29 36 43 52 63 75 83 91 102 109 112 115 116 118 121 119 123 121 121 121 123 132 133 128 121 123 123 121 122 120 115 117 117 120 119 122 122 121 121

GFSSW_250_spd_186.txt.gz
Wind_Speed
95 91 90 97 107 111 113 117 112 109 108 102 98 93 96 98 88 82 73 63 68 66 58 54 64 72 69 67 58 59 61 54 53 46 43 41 40 40 40 40 35 26 28 28 25
99 95 94 92 98 109 115 117 113 112 111 108 103 96 98 100 98 91 81 78 72 69 70 67 62 59 66 64 63 62 63 59 55 49 47 41 42 43 48 45 40 33 32 31 28
99 100 99 96 96 103 111 118 115 114 112 112 107 105 102 102 104 103 90 93 80 75 69 72 68 60 60 69 67 69 65 58 58 56 53 53 53 45 43 43 43 43 38 33 31
94 98 102 101 102 101 104 113 119 116 116 114 112 108 102 101 108 109 96 90 88 81 71 73 72 68 65 69 72 73 69 63 63 60 64 61 56 52 48 44 46 46 41 37 36
88 91 98 102 105 106 104 108 117 119 124 118 117 114 109 105 105 112 101 95 89 88 79 73 74 77 75 71 76 72 72 70 67 63 70 66 61 58 52 48 45 43 41 42 41
90 93 96 102 108 110 111 109 116 120 125 122 118 116 116 109 108 111 109 104 99 95 88 77 79 73 76 72 81 83 78 74 71 70 70 68 62 60 52 51 48 45 41 39 37
77 88 96 102 107 113 118 116 113 119 125 125 121 120 120 115 110 111 118 103 107 102 97 98 77 82 79 80 74 73 81 83 77 75 73 64 55 56 55 54 52 42 45 40 39
73 83 93 101 107 114 119 124 119 117 122 127 126 126 123 120 116 116 115 114 106 105 107 100 101 91 85 80 72 85 83 84 84 82 78 66 59 57 55 52 53 52 46 44 42
65 76 88 97 103 113 121 127 124 121 121 126 126 127 126 122 119 119 118 119 110 108 105 107 106 104 101 94 87 81 78 83 86 88 85 78 76 69 65 62 58 60 56 50 49
60 68 79 93 102 110 120 129 131 126 125 127 127 130 124 121 122 119 119 117 116 106 103 110 109 106 107 103 98 90 90 81 79 92 91 88 86 84 79 70 66 66 64 57 54
57 66 77 88 99 109 117 127 132 132 133 124 128 128 129 128 125 122 122 121 116 109 105 102 106 106 106 103 105 97 91 85 85 80 77 82 86 80 80 74 69 66 67 63 63
54 62 73 86 95 105 114 123 132 134 133 128 130 128 131 127 126 124 121 120 118 113 109 104 99 105 106 109 103 104 98 97 97 94 90 86 83 84 78 72 70 72 74 70 66
52 60 71 81 91 102 112 119 131 138 134 131 129 129 129 125 127 126 124 122 120 117 113 108 103 104 106 105 104 101 101 100 99 97 91 89 87 83 78 77 80 82 81 76 77
51 58 68 77 88 99 109 118 128 135 135 133 128 124 128 129 128 126 126 124 121 116 116 111 105 103 103 100 100 99 98 99 103 100 98 95 91 90 85 83 85 84 84 83 79
48 55 65 73 84 96 105 115 123 133 138 138 132 126 125 131 123 130 127 127 123 119 117 112 110 108 106 104 103 100 99 99 98 94 93 89 90 81 77 74 80 83 83 84 84
45 51 60 69 81 91 99 112 120 130 141 139 134 132 129 128 121 123 129 129 128 124 120 116 112 112 110 108 107 104 104 103 100 97 92 87 89 80 81 79 79 80 81 86 89
43 50 57 65 77 87 96 108 119 129 138 140 136 135 134 127 127 129 125 129 127 125 124 119 116 115 114 113 110 108 108 107 106 104 97 94 92 79 82 86 93 95 91 89 88
40 46 54 63 73 85 94 107 121 125 136 141 137 136 136 135 135 130 126 119 121 128 125 121 118 118 116 115 114 114 111 111 110 106 101 100 96 86 88 86 89 100 102 100 98
37 43 52 60 69 81 92 104 119 126 133 140 141 138 137 136 132 134 132 128 125 128 127 122 118 118 117 117 115 114 112 111 110 108 104 101 92 91 91 92 92 93 97 99 102
32 40 47 56 66 77 87 99 113 121 123 136 142 137 140 137 134 125 127 126 129 127 121 120 120 118 118 116 114 113 112 112 111 110 109 101 96 92 94 95 96 95 97 95 94
28 36 43 52 62 72 84 95 106 117 122 131 138 136 138 138 139 136 131 126 124 124 119 121 118 115 113 112 114 116 113 112 112 111 110 105 99 95 95 95 97 98 99 100 100
23 30 37 47 56 66 77 89 98 112 121 125 132 137 138 139 139 137 137 135 132 128 125 122 117 116 114 113 111 110 110 112 111 110 109 106 98 96 97 100 102 103 104 105 103
13 20 29 37 49 57 68 81 91 102 115 120 128 138 140 140 138 139 137 134 131 128 128 125 119 116 116 115 114 112 110 111 112 113 108 107 96 99 100 103 105 107 107 106 106
12 17 24 31 42 51 60 72 84 93 106 116 122 127 133 136 136 137 136 135 133 129 128 128 125 120 118 116 116 116 115 114 114 112 105 107 98 100 101 104 105 104 104 105 107
7 6 15 23 31 42 50 60 73 83 93 106 115 118 124 133 135 133 134 135 134 130 128 126 125 122 120 119 118 118 119 118 117 111 114 107 108 104 108 108 108 108 110 110 109
11 8 9 13 21 30 40 50 60 71 82 91 104 114 117 121 125 131 134 132 131 130 130 128 127 126 124 121 121 120 120 121 119 116 116 114 112 112 112 112 109 113 116 115 114
18 12 10 11 13 17 24 34 44 55 66 77 87 99 109 114 115 120 124 127 130 128 124 122 124 127 127 126 127 124 121 123 121 120 122 120 117 118 116 115 117 120 120 119 120